Regional Weather Roundup
Issued by NWS

Home | Current Version | Previous Version | Text Only | Print | Product List | Glossary Off
Versions: 1 2 3 4 5 6 7 8 9 10 11 12 13 14 15 16 17 18 19 20 21 22 23 24 25 26 27 28 29 30 31 32 33 34 35 36 37 38 39 40 41 42 43 44 45 46 47 48 49 50

825
ASUS43 KLOT 171012
RWRIL

ILLINOIS REGIONAL WEATHER ROUNDUP
NATIONAL WEATHER SERVICE CHICAGO/ROMEOVILLE IL
400 AM CST TUE JAN 17 2017

NOTE: "FAIR" INDICATES FEW OR NO CLOUDS BELOW 12,000 FEET WITH NO
SIGNIFICANT WEATHER AND/OR OBSTRUCTIONS TO VISIBILITY.

* THESE STATIONS ARE NOT UNDER NWS QUALITY CONTROL. THEY ALSO MAY NOT
  REPORT WEATHER SUCH AS PRECIPITATION OR FOG.

ILZ001-002-007-009-015-016-024-171100-
NORTHWEST ILLINOIS

CITY           SKY/WX    TMP DP  RH WIND       PRES   REMARKS
MOLINE         CLOUDY    35  34  96 W8        29.84R FOG     WCI  29
STERLING*      CLOUDY    35  35 100 W9        29.83R WCI  28
SAVANNA*       CLOUDY    35  34  99 NW3       29.83R
$$

ILZ003-004-008-010-011-017-018-171100-
NORTH CENTRAL ILLINOIS

CITY           SKY/WX    TMP DP  RH WIND       PRES   REMARKS
ROCKFORD       CLOUDY    36  35  96 NW6       29.78F WCI  31
FREEPORT*      CLOUDY    33  33  99 NW6       29.82R FOG     WCI  28
ROCHELLE*      CLOUDY    35  35 100 NW5       29.78R WCI  31
DE KALB*       CLOUDY    35  35  99 NW6       29.77R FOG     WCI  30
$$

ILZ005-006-012>014-019>023-171100-
NORTHEAST ILLINOIS

CITY           SKY/WX    TMP DP  RH WIND       PRES   REMARKS
CHICAGO-OHARE  CLOUDY    38  38 100 NW5       29.72S WCI  34
CHICAGO-MIDWAY CLOUDY    38  38 100 SW5       29.73S FOG     WCI  34
AURORA         LGT RAIN  37  35  92 SW7       29.76R WCI  32
LANSING*       CLOUDY    48  48 100 SW9       29.73F
JOLIET*        FOG       43  43 100 SW7       29.76R VSB 1/4
WAUKEGAN       FOG       37  37 100 N6        29.72F VSB 1/2 WCI  32
DUPAGE AIRPORT LGT RAIN  37  36  96 CALM      29.73S FOG
KANKAKEE*      CLOUDY    45  44  97 W14       29.78R
WHEELING       CLOUDY    38  37  97 NW5       29.73F FOG     WCI  34
MORRIS*        FOG       39  38  99 W13G18    29.76R VSB 1/2 WCI  31
ROMEOVILLE*    DRZL/FOG  42  42 100 W12       29.75R VSB 1/4
NORTHERLY ISL    N/A     40  39  97 S3          N/A
$$

LMZ740>746-171100-
SOUTHERN LAKE MICHIGAN

STATION/POSITION SKY/WX   TEMP    WIND        PRES    VSBY  WAVE
                          AIR SEA DIR/SP/G                  HT/PER
                          (F)     (DEG/KT/KT) (MB)    (MI)  (FT/S)
HARRISON CRIB              40     190/  6/  6   N/A
BURNHAM HARBOR             43     180/  4/  4   N/A
CALUMET HARBOR             42      CALM  /  2 1006.1F
BURNS HARBOR               51     220/ 11/ 15 1007.5F
$$

ILZ025>027-034>036-040-047-049-050-058-095>099-171100-
WEST-CENTRAL ILLINOIS

CITY           SKY/WX    TMP DP  RH WIND       PRES   REMARKS
QUINCY         CLOUDY    41  40  96 W10G21    29.89R
GALESBURG*     FOG       37  37 100 W8        29.84R VSB 1/2 WCI  31
MACOMB*        CLOUDY    40  40 100 W13       29.88S FOG
JACKSONVILLE*  CLOUDY    43  40  89 SW15      29.89R
PITTSFIELD*    CLOUDY    43  41  93 SW15      29.91S
$$

ILZ028>032-037-038-041>044-048-051>054-059>061-171100-
CENTRAL ILLINOIS

CITY           SKY/WX    TMP DP  RH WIND       PRES   REMARKS
PONTIAC        CLOUDY    45  45 100 W16       29.82R
BLOOMINGTON    CLOUDY    45  44  97 W17G25    29.83R
DECATUR        CLOUDY    48  45  89 W10       29.86S
PEORIA         CLOUDY    43  43 100 W10       29.85R FOG
LACON*         CLOUDY    40  40 100 SW5       29.82S FOG
LINCOLN*       CLOUDY    46  46  97 W9        29.86R
SPRINGFIELD    CLOUDY    46  42  86 W16       29.88R
TAYLORVILLE    CLOUDY    46  42  87 W15       29.88S
$$

ILZ033-039-045-046-055>057-062-063-171100-
EAST-CENTRAL ILLINOIS

CITY           SKY/WX    TMP DP  RH WIND       PRES   REMARKS
CHAMPAIGN      CLOUDY    50  47  89 W21G30    29.83R
RANTOUL*       CLOUDY    49  49  97 W15G21    29.82R
MATTOON        CLOUDY    50  46  86 W16       29.85S
PARIS*         CLOUDY    52  51  95 W16       29.85R
$$

ILZ079-100>102-171100-
SOUTHWEST ILLINOIS

CITY           SKY/WX    TMP DP  RH WIND       PRES   REMARKS
ALTON          CLOUDY    44  40  84 W14       29.93R
BELLEVILLE     CLOUDY    48  46  94 W16G22    29.92R
CAHOKIA*       CLOUDY    47  39  74 W10       29.94R
SPARTA*        CLOUDY    48  44  87 W6        29.94S
$$

ILZ064>066-069>071-074>076-080>082-084>086-088>090-092>094-171100-
SOUTH-CENTRAL ILLINOIS

CITY           SKY/WX    TMP DP  RH WIND       PRES   REMARKS
CARBONDALE     NOT AVBL
CAIRO*         MOCLDY    57  56  97 SW8       29.93S
EFFINGHAM*     CLOUDY    51  50  96 SW9       29.90R
MARION         CLOUDY    59  59 100 NW10G16   29.92R
MT. VERNON     CLOUDY    51  46  83 W9        29.92R
CENTRALIA*     CLOUDY    51  47  87 W16       29.91S
SALEM*         CLOUDY    51  46  82 W13       29.91R
METROPOLIS*    CLOUDY    60  56  86 SW9G17    29.94R
$$

ILZ067-068-072-073-078-083-087-091-171100-
SOUTHEAST ILLINOIS

CITY           SKY/WX    TMP DP  RH WIND       PRES   REMARKS
LAWRENCEVILLE  MOCLDY    58  57  97 SW14      29.87S
FLORA*         CLOUDY    54  49  85 W12G18    29.90R
FAIRFIELD*     CLOUDY    53  48  84 W8        29.89R
HARRISBURG*    PTCLDY    59  56  91 SW12      29.90S
ROBINSON*      CLOUDY    58  56  92 SW14G22   29.86S
CARMI*         PTCLDY    55  55 100 S8        29.88F
$$

ABBREVIATIONS USED IN REMARKS
   TC - TEMPERATURE IN CELSIUS
  WCI - WIND CHILL INDEX
   HX - HEAT INDEX
  VSB - VISIBILITY
$$





USA.gov is the U.S. government's official web portal to all federal, state and local government web resources and services.